Volver al catálogo

STARLINK-31719

ActivoComunicacionesVLEO
NORAD 59495·PAYLOAD·🇺🇸 United States

Lanzado Apr 13, 2024 desde Cape Canaveral Space Force Station

Loading…

Próximos Pases (próximas 24 horas)

TLE

ActualizadoSource: CelesTrak SupGP

Época: Sep 14, 2026, 20:56 UTC

1 59495C 24071M   26257.87270833  .00008976  00000+0  32513-3 0  2579
2 59495  43.0038 351.5888 0001817 269.2981 169.2796 15.27572715    17

Sigue STARLINK-31719 en tiempo real con AllMySat

Download on the App Store